Regional Weather Roundup
Issued by NWS

Home | Current Version | Previous Version | Graphics & Text | Print | Product List | Glossary On
Versions: 1 2 3 4 5 6 7 8 9 10 11 12 13 14 15 16 17 18 19 20 21 22 23 24 25 26 27 28 29 30 31 32 33 34 35 36 37 38 39 40 41 42 43 44 45 46 47 48 49 50
000
ASUS45 KTFX 281019
RWRMT
MONTANA HOURLY WEATHER ROUNDUP
NATIONAL WEATHER SERVICE GREAT FALLS MT
419 AM MDT MON JUL 28 2014

NOTE: "FAIR" INDICATES FEW OR NO CLOUDS BELOW 12000 FEET WITH NO
SIGNIFICANT WEATHER AND/OR OBSTRUCTIONS TO VISIBILITY.

* THESE STATIONS ARE NOT UNDER NWS QUALITY CONTROL. THEY DO NOT
   REPORT WEATHER SUCH AS PRECIPITATION OR FOG.

MTZ001>007-043-281100-
WEST OF THE DIVIDE
CITY           SKY/WX    TMP DP  RH WIND       PRES   REMARKS
KALISPELL      PTCLDY    55  46  72 CALM      30.17R
MISSOULA       MOCLDY    61  43  52 NW3       30.19S
BUTTE          CLEAR     50  34  54 SE6       30.33S
MULLAN PASS    MOCLDY    66  36  33 SE8       30.32F
* ESSEX        N/A       56  41  57 SE9G14     N/A
* LINCOLN      N/A       47  42  83 N/A        N/A
* LOOKOUT PASS N/A       60  43  54 S2         N/A
* POLSON       N/A       61  45  56 E1         N/A
* RONAN APT    PTCLDY    54  46  74 N/A        N/A
* SEELEY LAKE  N/A       45  38  77 NE1        N/A
* THOMP F APT  MOCLDY    70  29  22 N5G10      N/A
* YAAK HILL    N/A       59  46  62 SW1        N/A
$$

MTZ008-052>055-281100-
SOUTHWEST MONTANA
CITY           SKY/WX    TMP DP  RH WIND       PRES   REMARKS
BOZEMAN        CLEAR     57  43  60 CALM      30.27R
DILLON         PTCLDY    54  34  47 SW7       30.28R
W YELLOWSTONE  PTCLDY    39  34  82 SW3       30.40S
* THREE FORKS  PTCLDY    52  52 100 N/A        N/A
* BOULDER HILL N/A       62  33  34 SW5        N/A
* RAYNOLDS PAS N/A       50  49  96 N/A        N/A
* WHITEHALL    N/A       62  32  32 NE6G13     N/A
* WISE RIVER   N/A       51  31  46 SE3        N/A
$$

MTZ009>010-012-014-046-048-049-054-281100-
EAST SLOPES AND CENTRAL MONTANA
CITY           SKY/WX    TMP DP  RH WIND       PRES   REMARKS
CUT BANK       PTCLDY    52  43  72 NE8       30.25S
GREAT FALLS    PTCLDY    61  41  48 S3        30.21S
HELENA         CLEAR     64  39  40 SW3       30.23F
MALMSTROM AFB  MOCLDY    64  41  43 S12       30.22S
* CONRAD       PTCLDY    46  45  96 N/A        N/A
* DEARBORN     N/A       60  39  46 S3         N/A
* EAST GLACIER N/A       51  38  61 NW8        N/A
* ROGERS PASS  N/A       57  35  44 NW2        N/A
* SAINT MARY   N/A       42  39  89 S3         N/A
* SWEET GRASS  N/A       64  42  45 S16G21     N/A
* WHITE SULPH  N/A       59  37  44 NE7G12     N/A
$$

MTZ011-013-016-021-035-040-045-047-050-051-281100-
NORTH CENTRAL MONTANA
CITY           SKY/WX    TMP DP  RH WIND       PRES   REMARKS
HAVRE          CLEAR     61  45  56 E8        30.21S
LEWISTOWN      CLEAR     64  43  47 E9        30.29R
* FORT BENTON  CLEAR     68  43  40 NE10      30.21S
* CHESTER      N/A       66  43  43 SE7G13     N/A
* DENTON       N/A       64  40  41 SE11       N/A
* JUDITH GAP   N/A       55  40  57 SW6        N/A
* LOMA         N/A       67  44  44 NE17G22    N/A
$$

MTZ017>020-022>027-061-062-281100-
NORTHEAST MONTANA
CITY           SKY/WX    TMP DP  RH WIND       PRES   REMARKS
GLASGOW        CLEAR     57  52  83 E12       30.26S
GLENDIVE       CLEAR     57  50  78 SE5       30.32F
JORDAN         CLEAR     59  46  62 E3        30.27F
SIDNEY         CLEAR     52  46  80 CALM      30.33R
WOLF POINT     CLEAR     54  48  80 E5        30.29S
* BEAVER HILL  N/A       56  51  83 SE12       N/A
* CIRCLE       N/A       58  52  81 N/A        N/A
* LINDSAY DVD  N/A       52  50  93 E3         N/A
* NAVAJO       N/A       53  50  90 SE4        N/A
$$

MTZ028>042-056>058-281100-
SOUTHCENTRAL AND SOUTHEAST MONTANA
CITY           SKY/WX    TMP DP  RH WIND       PRES   REMARKS
BAKER          CLEAR     54  50  86 SE8       30.33S
BILLINGS       PTCLDY    63  43  48 N7        30.26R
LIVINGSTON     CLEAR     57  39  51 CALM      30.30S
MILES CITY     CLEAR     63  54  73 SE8       30.28S
* LAUREL APT   PTCLDY    63  39  41 N5         N/A
* ROUNDUP APT  CLEAR     59  39  48 N/A        N/A
* ALZADA       N/A       54  51  90 E4         N/A
* HYSHAM       N/A       62  41  46 E8         N/A
* LAME DEER    N/A       61  48  62 SE10       N/A
* REED POINT   N/A       52  45  77 N/A        N/A
* ROSCOE HILL  N/A       61  37  41 SW4        N/A
$$

REGIONAL REPORTS...DAKOTAS
CITY           SKY/WX    TMP DP  RH WIND       PRES   REMARKS
WILLISTON      CLEAR     52  48  86 CALM      30.31F
DICKINSON      CLEAR     48  46  93 S7        30.33R
CROSBY         N/A       54  54 100 SE5       30.32S
TIOGA          CLOUDY    52  52 100 CALM      30.35S
WATFORD CITY   MOCLDY    50  50 100 CALM      30.31S
BISMARCK       CLEAR     46  46 100 CALM      30.33S
GRAND FORKS    CLOUDY    61  55  81 NW5        N/A
FARGO          CLOUDY    61  55  81 NW7       30.24R
BUFFALO SD     CLEAR     54  50  86 SE7       30.29S
RAPID CITY     FAIR      54  50  86 CALM      30.36F
$$

REGIONAL REPORTS...WYOMING/IDAHO/WASHINGTON
CITY           SKY/WX    TMP DP  RH WIND       PRES   REMARKS
GILLETTE       CLEAR     55  45  69 CALM      30.35F
SHERIDAN       CLEAR     52  45  77 CALM      30.28F
YELLOWSTONE LA CLEAR     41  34  76 CALM      30.50F
MULLAN PASS    MOCLDY    66  36  33 SE8       30.32S
SAND POINT     CLOUDY    57  50  78 CALM      30.13S
SPOKANE        CLOUDY    72  45  38 NE7       30.09S
$$

REGIONAL REPORTS...ALBERTA
CITY           SKY/WX    TMP DP  RH WIND       PRES   REMARKS
CALGARY        FAIR      52  48  86 NW5       30.25S
LETHBRIDGE     CLEAR     52  48  86 SW2       30.21R
MEDICINE HAT   MOCLDY    61  54  78 NE8       30.21S
EDMONTON       MOCLDY    54  52  93 CALM      30.21S
WATERTON GATE  N/A       48  43  83 N2         N/A
CARDSTON       N/A       48  46  93 SW1        N/A
MILK RIVER     N/A       61  43  52 S6         N/A
$$

REGIONAL REPORTS...SASKATCHEWAN
CITY           SKY/WX    TMP DP  RH WIND       PRES   REMARKS
SWIFT CURRENT  CLEAR     52  48  86 S8        30.27S
MOOSE JAW      MOCLDY    54  54 100 SE6       30.29R
REGINA         FAIR      55  54  96 SE8       30.30S
VAL MARIE      N/A       50  48  93 E6         N/A
ASSINIBOIA     N/A       54  50  86 SE3        N/A
CORONACH       N/A       46  45  96 S1         N/A

$$



USA.gov is the U.S. government's official web portal to all federal, state and local government web resources and services.